OCN910 EDDF-LDZD

Flight info

Callsign OCN910
Flight time 1h 14m
Altitude 35000
Route CINDY8S/18 CINDY Z74 LAMPU DCT NOMBO Y161 MAH DCT VAVOR DCT RADIZ DCT KUDUL
Aircraft A320/M-SDE3FGHIRWY/LB1

Departure

Time 2026-05-05 18:10
Airport Frankfurt Main Airport (EDDF)

Arrival

Time 2026-05-05 19:25
Airport Zadar Airport (LDZD)
Time Latitude Longitude Altitude Speed Heading
2026-05-05 17:40 50.04987 8.57407 379 ft 0 kts 340°
2026-05-05 17:51 50.04993 8.57406 379 ft 2 kts
2026-05-05 17:51 50.04992 8.57439 378 ft 5 kts 157°
2026-05-05 17:52 50.04948 8.57485 377 ft 10 kts 121°
2026-05-05 17:52 50.04917 8.57588 375 ft 7 kts 115°
2026-05-05 17:52 50.04913 8.57599 375 ft 0 kts 116°
2026-05-05 17:52 50.04911 8.57608 375 ft 3 kts 116°
2026-05-05 17:53 50.04897 8.57657 375 ft 6 kts 113°
2026-05-05 17:53 50.04877 8.57729 375 ft 8 kts 113°
2026-05-05 17:53 50.04861 8.57783 374 ft 0 kts 113°
2026-05-05 17:53 50.04860 8.57788 374 ft 1 kts 113°
2026-05-05 17:54 50.04853 8.57815 374 ft 3 kts 112°
2026-05-05 17:54 50.04850 8.57827 374 ft 0 kts 113°
2026-05-05 17:55 50.04850 8.57828 374 ft 0 kts 113°
2026-05-05 17:56 50.04828 8.57880 375 ft 9 kts 137°
2026-05-05 17:56 50.04758 8.57925 374 ft 12 kts 180°
2026-05-05 17:56 50.04689 8.57819 371 ft 17 kts 249°
2026-05-05 17:56 50.04642 8.57623 370 ft 21 kts 250°
2026-05-05 17:57 50.04590 8.57402 371 ft 22 kts 250°
2026-05-05 17:57 50.04535 8.57174 371 ft 22 kts 250°
2026-05-05 17:57 50.04478 8.56940 370 ft 23 kts 250°
2026-05-05 17:57 50.04420 8.56693 366 ft 25 kts 250°
2026-05-05 17:58 50.04359 8.56440 363 ft 25 kts 250°
2026-05-05 17:58 50.04296 8.56174 360 ft 26 kts 250°
2026-05-05 17:58 50.04232 8.55906 357 ft 26 kts 250°
2026-05-05 17:58 50.04168 8.55637 355 ft 26 kts 250°
2026-05-05 17:59 50.04104 8.55374 355 ft 25 kts 250°
2026-05-05 17:59 50.04042 8.55113 351 ft 26 kts 250°
2026-05-05 17:59 50.03977 8.54839 347 ft 27 kts 250°
2026-05-05 17:59 50.03909 8.54558 343 ft 28 kts 250°
2026-05-05 18:00 50.03828 8.54290 342 ft 26 kts 237°
2026-05-05 18:00 50.03756 8.54038 345 ft 24 kts 250°
2026-05-05 18:00 50.03698 8.53799 348 ft 22 kts 250°
2026-05-05 18:00 50.03660 8.53642 347 ft 11 kts 249°
2026-05-05 18:01 50.03632 8.53532 347 ft 11 kts 249°
2026-05-05 18:01 50.03602 8.53410 346 ft 12 kts 250°
2026-05-05 18:01 50.03567 8.53261 342 ft 16 kts 250°
2026-05-05 18:01 50.03533 8.53118 342 ft 8 kts 250°
2026-05-05 18:02 50.03520 8.53065 341 ft 4 kts 250°
2026-05-05 18:02 50.03507 8.53011 341 ft 6 kts 250°
2026-05-05 18:02 50.03488 8.52934 341 ft 8 kts 250°
2026-05-05 18:02 50.03480 8.52903 341 ft 0 kts 246°
2026-05-05 18:03 50.03480 8.52901 341 ft 0 kts 246°
2026-05-05 18:04 50.03475 8.52883 341 ft 2 kts 246°
2026-05-05 18:04 50.03464 8.52846 340 ft 4 kts 246°
2026-05-05 18:04 50.03448 8.52788 340 ft 6 kts 248°
2026-05-05 18:04 50.03435 8.52737 340 ft 3 kts 249°
2026-05-05 18:05 50.03433 8.52729 340 ft 0 kts 250°
2026-05-05 18:06 50.03432 8.52724 340 ft 1 kts 250°
2026-05-05 18:07 50.03422 8.52684 339 ft 6 kts 249°
2026-05-05 18:07 50.03400 8.52605 339 ft 8 kts 237°
2026-05-05 18:07 50.03368 8.52593 338 ft 0 kts 179°
2026-05-05 18:09 50.03190 8.52595 335 ft 66 kts 180°
2026-05-05 18:09 50.02464 8.52603 328 ft 140 kts 180°
2026-05-05 18:10 50.01352 8.52610 699 ft 167 kts 181°
2026-05-05 18:10 50.00201 8.52630 1497 ft 169 kts 182°
2026-05-05 18:10 49.99030 8.52657 2321 ft 171 kts 182°
2026-05-05 18:10 49.97817 8.52676 2874 ft 182 kts 181°
2026-05-05 18:11 49.96566 8.53229 3325 ft 203 kts 148°
2026-05-05 18:11 49.95654 8.54989 3749 ft 224 kts 121°
2026-05-05 18:11 49.94899 8.57235 4248 ft 239 kts 119°
2026-05-05 18:11 49.94207 8.59580 4911 ft 248 kts 109°
2026-05-05 18:12 49.93879 8.62201 5778 ft 253 kts 97°
2026-05-05 18:12 49.93776 8.64993 6353 ft 270 kts 94°
2026-05-05 18:12 49.93646 8.67966 6906 ft 286 kts 104°
2026-05-05 18:12 49.92758 8.70674 7653 ft 288 kts 137°
2026-05-05 18:13 49.91190 8.72522 8640 ft 285 kts 150°
2026-05-05 18:13 49.89554 8.74278 9544 ft 291 kts 144°
2026-05-05 18:13 49.88105 8.76533 10266 ft 304 kts 130°
2026-05-05 18:13 49.86950 8.79310 11026 ft 314 kts 125°
2026-05-05 18:14 49.85615 8.81907 11886 ft 314 kts 137°
2026-05-05 18:14 49.84057 8.84322 12751 ft 317 kts 139°
2026-05-05 18:14 49.82483 8.86703 13562 ft 321 kts 138°
2026-05-05 18:14 49.80920 8.89107 14343 ft 324 kts 136°
2026-05-05 18:15 49.79338 8.91588 15160 ft 327 kts 137°
2026-05-05 18:15 49.77747 8.94123 15945 ft 329 kts 136°
2026-05-05 18:15 49.76171 8.96649 16679 ft 331 kts 136°
2026-05-05 18:15 49.74590 8.99193 17381 ft 333 kts 136°
2026-05-05 18:16 49.72974 9.01795 18100 ft 336 kts 136°
2026-05-05 18:16 49.71367 9.04386 18798 ft 338 kts 135°
2026-05-05 18:16 49.69740 9.07012 19484 ft 340 kts 135°
2026-05-05 18:16 49.68105 9.09644 20168 ft 342 kts 136°
2026-05-05 18:17 49.66474 9.12269 20844 ft 343 kts 135°
2026-05-05 18:17 49.64817 9.14933 21517 ft 345 kts 135°
2026-05-05 18:17 49.63148 9.17613 22149 ft 348 kts 135°
2026-05-05 18:17 49.61474 9.20303 22466 ft 349 kts 135°
2026-05-05 18:18 49.59804 9.22984 22720 ft 350 kts 134°
2026-05-05 18:18 49.58126 9.25676 22979 ft 350 kts 134°
2026-05-05 18:18 49.56428 9.28399 23241 ft 351 kts 135°
2026-05-05 18:18 49.54743 9.31095 23504 ft 352 kts 135°
2026-05-05 18:19 49.53048 9.33806 23830 ft 357 kts 135°
2026-05-05 18:19 49.51318 9.36567 24502 ft 357 kts 135°
2026-05-05 18:19 49.49618 9.39279 25142 ft 358 kts 135°
2026-05-05 18:19 49.47880 9.42048 25721 ft 360 kts 135°
2026-05-05 18:20 49.46145 9.44808 26256 ft 362 kts 135°
2026-05-05 18:20 49.44382 9.47608 26677 ft 367 kts 135°
2026-05-05 18:20 49.42615 9.50413 27089 ft 372 kts 135°
2026-05-05 18:20 49.40808 9.53278 27566 ft 374 kts 135°
2026-05-05 18:21 49.39014 9.56121 28059 ft 376 kts 135°
2026-05-05 18:21 49.37194 9.58999 28558 ft 377 kts 135°
2026-05-05 18:21 49.35352 9.61910 29032 ft 379 kts 135°
2026-05-05 18:21 49.33518 9.64805 29457 ft 381 kts 135°
2026-05-05 18:22 49.31692 9.67683 29858 ft 383 kts 135°
2026-05-05 18:22 49.29820 9.70631 30279 ft 385 kts 135°
2026-05-05 18:22 49.28020 9.73638 30669 ft 387 kts 133°
2026-05-05 18:22 49.26265 9.76778 31039 ft 389 kts 132°
2026-05-05 18:23 49.24530 9.79911 31373 ft 391 kts 132°
2026-05-05 18:23 49.22759 9.83098 31673 ft 394 kts 132°
2026-05-05 18:23 49.20994 9.86259 31955 ft 396 kts 133°
2026-05-05 18:23 49.19181 9.89495 32263 ft 399 kts 133°
2026-05-05 18:24 49.17381 9.92696 32563 ft 401 kts 133°
2026-05-05 18:24 49.15568 9.95915 32856 ft 402 kts 133°
2026-05-05 18:24 49.13741 9.99155 33119 ft 405 kts 133°
2026-05-05 18:24 49.11904 10.02402 33394 ft 407 kts 133°
2026-05-05 18:25 49.10048 10.05682 33659 ft 409 kts 133°
2026-05-05 18:25 49.08813 10.07861 33837 ft 410 kts 133°
2026-05-05 18:25 49.06335 10.12224 34123 ft 413 kts 133°
2026-05-05 18:25 49.04464 10.15517 34310 ft 416 kts 133°
2026-05-05 18:26 49.02546 10.18889 34513 ft 419 kts 133°
2026-05-05 18:26 49.00640 10.22236 34711 ft 421 kts 133°
2026-05-05 18:26 48.98723 10.25596 34790 ft 422 kts 133°
2026-05-05 18:27 48.94895 10.32292 34819 ft 420 kts 133°
2026-05-05 18:27 48.91082 10.38950 34807 ft 420 kts 133°
2026-05-05 18:28 48.85344 10.48930 34795 ft 420 kts 133°
2026-05-05 18:28 48.81519 10.55562 34807 ft 421 kts 134°
2026-05-05 18:29 48.77679 10.62205 34800 ft 421 kts 134°
2026-05-05 18:29 48.73818 10.68865 34792 ft 421 kts 135°
2026-05-05 18:30 48.69965 10.75498 34794 ft 421 kts 135°
2026-05-05 18:30 48.66090 10.82150 34825 ft 422 kts 135°
2026-05-05 18:31 48.62241 10.88738 34809 ft 421 kts 135°
2026-05-05 18:31 48.58389 10.95323 34804 ft 420 kts 135°
2026-05-05 18:32 48.54496 11.01953 34801 ft 422 kts 135°
2026-05-05 18:32 48.50604 11.08561 34804 ft 423 kts 135°
2026-05-05 18:33 48.46682 11.15212 34822 ft 426 kts 136°
2026-05-05 18:33 48.42768 11.21831 34796 ft 427 kts 136°
2026-05-05 18:34 48.38815 11.28496 34807 ft 430 kts 136°
2026-05-05 18:34 48.34816 11.35220 34805 ft 432 kts 136°
2026-05-05 18:35 48.30833 11.41903 34798 ft 432 kts 136°
2026-05-05 18:35 48.26821 11.48622 34815 ft 434 kts 136°
2026-05-05 18:36 48.22807 11.55325 34794 ft 435 kts 136°
2026-05-05 18:36 48.18759 11.62069 34797 ft 438 kts 136°
2026-05-05 18:37 48.14669 11.68856 34790 ft 438 kts 137°
2026-05-05 18:37 48.10592 11.75611 34795 ft 440 kts 137°
2026-05-05 18:38 48.06495 11.82378 34809 ft 442 kts 137°
2026-05-05 18:38 48.02382 11.89159 34819 ft 443 kts 136°
2026-05-05 18:39 47.98237 11.95974 34820 ft 444 kts 136°
2026-05-05 18:39 47.94070 12.02808 34828 ft 445 kts 136°
2026-05-05 18:40 47.89927 12.09590 34828 ft 444 kts 136°
2026-05-05 18:40 47.85766 12.16379 34833 ft 445 kts 136°
2026-05-05 18:41 47.81574 12.23201 34840 ft 446 kts 136°
2026-05-05 18:41 47.77396 12.29982 34861 ft 447 kts 136°
2026-05-05 18:42 47.73185 12.36802 34876 ft 448 kts 136°
2026-05-05 18:42 47.68999 12.43560 34882 ft 448 kts 136°
2026-05-05 18:43 47.64660 12.50174 34877 ft 446 kts 141°
2026-05-05 18:43 47.59911 12.55987 34870 ft 443 kts 147°
2026-05-05 18:44 47.54770 12.60969 34881 ft 442 kts 152°
2026-05-05 18:44 47.49534 12.65703 34876 ft 442 kts 153°
2026-05-05 18:45 47.44303 12.70432 34888 ft 443 kts 153°
2026-05-05 18:45 47.39025 12.75192 34884 ft 444 kts 153°
2026-05-05 18:46 47.33788 12.79909 34903 ft 445 kts 153°
2026-05-05 18:46 47.28501 12.84656 34908 ft 445 kts 153°
2026-05-05 18:47 47.23243 12.89367 34914 ft 445 kts 153°
2026-05-05 18:47 47.17949 12.94098 34928 ft 446 kts 153°
2026-05-05 18:48 47.12649 12.98823 34893 ft 446 kts 152°
2026-05-05 18:48 47.07388 13.03504 34895 ft 446 kts 152°
2026-05-05 18:49 47.02060 13.08236 34908 ft 447 kts 152°
2026-05-05 18:49 46.96744 13.12943 34916 ft 448 kts 152°
2026-05-05 18:50 46.91401 13.17663 34899 ft 448 kts 152°
2026-05-05 18:50 46.86089 13.22346 34918 ft 449 kts 152°
2026-05-05 18:51 46.80742 13.27048 34942 ft 449 kts 153°
2026-05-05 18:51 46.75415 13.31720 34952 ft 449 kts 153°
2026-05-05 18:52 46.70072 13.36397 34952 ft 450 kts 152°
2026-05-05 18:52 46.64693 13.41093 34950 ft 449 kts 153°
2026-05-05 18:53 46.59352 13.45745 34951 ft 450 kts 153°
2026-05-05 18:53 46.54008 13.50388 34945 ft 450 kts 152°
2026-05-05 18:54 46.48635 13.55048 34972 ft 451 kts 152°
2026-05-05 18:54 46.43244 13.59712 34949 ft 451 kts 152°
2026-05-05 18:55 46.37861 13.64358 34944 ft 451 kts 153°
2026-05-05 18:55 46.32467 13.69004 34939 ft 451 kts 153°
2026-05-05 18:56 46.27068 13.73641 34950 ft 451 kts 153°
2026-05-05 18:56 46.21693 13.78246 34947 ft 451 kts 153°
2026-05-05 18:57 46.16286 13.82869 34938 ft 453 kts 153°
2026-05-05 18:57 46.10869 13.87491 34935 ft 453 kts 153°
2026-05-05 18:58 46.05446 13.92106 34934 ft 453 kts 153°
2026-05-05 18:58 46.00057 13.96684 34934 ft 453 kts 153°
2026-05-05 18:59 45.94610 14.01300 34925 ft 454 kts 153°
2026-05-05 18:59 45.89169 14.05901 34928 ft 455 kts 154°
2026-05-05 19:00 45.83744 14.10475 34927 ft 455 kts 154°
2026-05-05 19:00 45.78282 14.15070 34935 ft 456 kts 154°
2026-05-05 19:01 45.75552 14.17362 34720 ft 453 kts 154°
2026-05-05 19:01 45.72826 14.19651 33798 ft 459 kts 154°
2026-05-05 19:01 45.70085 14.21941 32616 ft 468 kts 153°
2026-05-05 19:01 45.67274 14.24287 31828 ft 466 kts 153°
2026-05-05 19:02 45.64500 14.26610 31289 ft 459 kts 153°
2026-05-05 19:02 45.61773 14.28893 30766 ft 452 kts 153°
2026-05-05 19:02 45.59077 14.31146 30214 ft 446 kts 153°
2026-05-05 19:02 45.56453 14.33334 29615 ft 441 kts 153°
2026-05-05 19:03 45.53811 14.35536 28997 ft 437 kts 153°
2026-05-05 19:03 45.51225 14.37686 28375 ft 433 kts 153°
2026-05-05 19:03 45.48627 14.39845 27744 ft 429 kts 153°
2026-05-05 19:03 45.46088 14.41950 27152 ft 425 kts 153°
2026-05-05 19:04 45.43547 14.44056 26533 ft 421 kts 153°
2026-05-05 19:04 45.41031 14.46141 25900 ft 418 kts 153°
2026-05-05 19:04 45.38525 14.48213 25284 ft 415 kts 153°
2026-05-05 19:04 45.36070 14.50239 24699 ft 412 kts 153°
2026-05-05 19:05 45.33602 14.52275 24114 ft 408 kts 153°
2026-05-05 19:05 45.31156 14.54293 23532 ft 404 kts 153°
2026-05-05 19:05 45.28730 14.56292 22953 ft 401 kts 153°
2026-05-05 19:05 45.26359 14.58247 22395 ft 398 kts 153°
2026-05-05 19:06 45.23976 14.60205 21842 ft 395 kts 153°
2026-05-05 19:06 45.21612 14.62148 21300 ft 391 kts 153°
2026-05-05 19:06 45.19272 14.64068 20766 ft 388 kts 153°
2026-05-05 19:06 45.16966 14.65959 20227 ft 385 kts 154°
2026-05-05 19:07 45.14658 14.67852 19688 ft 382 kts 154°
2026-05-05 19:07 45.12369 14.69724 19168 ft 379 kts 154°
2026-05-05 19:07 45.10100 14.71580 18649 ft 376 kts 154°
2026-05-05 19:07 45.07844 14.73422 18128 ft 374 kts 154°
2026-05-05 19:08 45.05609 14.75246 17631 ft 370 kts 154°
2026-05-05 19:08 45.03391 14.77052 17137 ft 368 kts 154°
2026-05-05 19:08 45.01188 14.78845 16636 ft 365 kts 154°
2026-05-05 19:08 44.98991 14.80633 16081 ft 365 kts 154°
2026-05-05 19:09 44.96801 14.82415 15567 ft 363 kts 154°
2026-05-05 19:09 44.94624 14.84182 15102 ft 360 kts 154°
2026-05-05 19:09 44.92466 14.85937 14653 ft 357 kts 154°
2026-05-05 19:09 44.90355 14.87649 14230 ft 353 kts 154°
2026-05-05 19:10 44.88236 14.89366 13808 ft 349 kts 154°
2026-05-05 19:10 44.86138 14.91066 13388 ft 346 kts 154°
2026-05-05 19:10 44.84065 14.92742 12978 ft 342 kts 154°
2026-05-05 19:10 44.82016 14.94397 12590 ft 338 kts 154°
2026-05-05 19:11 44.80006 14.96024 12340 ft 329 kts 155°
2026-05-05 19:11 44.78043 14.97608 12103 ft 324 kts 155°
2026-05-05 19:11 44.76090 14.99180 11865 ft 323 kts 155°
2026-05-05 19:11 44.74144 15.00745 11618 ft 321 kts 155°
2026-05-05 19:12 44.72209 15.02302 11362 ft 320 kts 155°
2026-05-05 19:12 44.70283 15.03851 11107 ft 319 kts 155°
2026-05-05 19:12 44.68356 15.05371 10855 ft 317 kts 156°
2026-05-05 19:12 44.66399 15.06723 10589 ft 310 kts 160°
2026-05-05 19:13 44.64434 15.07867 10276 ft 302 kts 164°
2026-05-05 19:13 44.62516 15.08875 10008 ft 295 kts 164°
2026-05-05 19:13 44.60615 15.09869 9848 ft 290 kts 164°
2026-05-05 19:13 44.58722 15.10858 9729 ft 290 kts 165°
2026-05-05 19:14 44.56830 15.11844 9607 ft 290 kts 164°
2026-05-05 19:14 44.54939 15.12833 9482 ft 290 kts 164°
2026-05-05 19:14 44.53050 15.13821 9362 ft 289 kts 164°
2026-05-05 19:14 44.51196 15.14794 9164 ft 281 kts 164°
2026-05-05 19:15 44.49396 15.15738 9036 ft 274 kts 164°
2026-05-05 19:15 44.47608 15.16672 8914 ft 274 kts 164°
2026-05-05 19:15 44.45805 15.17486 8780 ft 269 kts 176°
2026-05-05 19:15 44.43997 15.17295 8650 ft 258 kts 204°
2026-05-05 19:16 44.42530 15.15965 8526 ft 251 kts 230°
2026-05-05 19:16 44.41636 15.13913 8407 ft 248 kts 248°
2026-05-05 19:16 44.40979 15.11680 8284 ft 249 kts 247°
2026-05-05 19:16 44.40249 15.09506 8067 ft 246 kts 243°
2026-05-05 19:17 44.39410 15.07426 7684 ft 247 kts 239°
2026-05-05 19:17 44.38439 15.05457 7341 ft 246 kts 229°
2026-05-05 19:17 44.36985 15.04290 7136 ft 246 kts 193°
2026-05-05 19:17 44.35309 15.04622 6953 ft 250 kts 155°
2026-05-05 19:18 44.34103 15.06329 6776 ft 252 kts 117°
2026-05-05 19:18 44.33544 15.08612 6623 ft 246 kts 112°
2026-05-05 19:18 44.32719 15.10648 6350 ft 240 kts 132°
2026-05-05 19:18 44.31601 15.12346 6086 ft 236 kts 144°
2026-05-05 19:19 44.30270 15.13624 5868 ft 229 kts 152°
2026-05-05 19:19 44.28908 15.14698 5727 ft 220 kts 159°
2026-05-05 19:19 44.27499 15.15397 5584 ft 210 kts 170°
2026-05-05 19:19 44.26121 15.15782 5582 ft 192 kts 173°
2026-05-05 19:20 44.24865 15.16284 5405 ft 186 kts 159°
2026-05-05 19:20 44.23783 15.17228 5240 ft 181 kts 146°
2026-05-05 19:20 44.22852 15.18359 5074 ft 173 kts 140°
2026-05-05 19:20 44.22034 15.19483 4868 ft 158 kts 139°
2026-05-05 19:21 44.21286 15.20523 4617 ft 147 kts 139°
2026-05-05 19:21 44.20576 15.21497 4307 ft 142 kts 140°
2026-05-05 19:21 44.19877 15.22444 3946 ft 140 kts 139°
2026-05-05 19:21 44.19175 15.23390 3532 ft 143 kts 139°
2026-05-05 19:22 44.18462 15.24340 3139 ft 142 kts 139°
2026-05-05 19:22 44.17746 15.25268 2765 ft 140 kts 140°
2026-05-05 19:22 44.17039 15.26193 2375 ft 141 kts 137°
2026-05-05 19:22 44.16376 15.27190 1995 ft 140 kts 135°
2026-05-05 19:23 44.15702 15.28100 1717 ft 131 kts 140°
2026-05-05 19:23 44.15013 15.28958 1292 ft 136 kts 137°
2026-05-05 19:23 44.14347 15.29879 996 ft 134 kts 134°
2026-05-05 19:23 44.13689 15.30798 835 ft 135 kts 136°
2026-05-05 19:24 44.13012 15.31709 637 ft 135 kts 135°
2026-05-05 19:24 44.12343 15.32614 478 ft 133 kts 135°
2026-05-05 19:24 44.11679 15.33509 290 ft 132 kts 135°
2026-05-05 19:24 44.11079 15.34327 245 ft 98 kts 135°
2026-05-05 19:25 44.10713 15.34822 248 ft 48 kts 135°
2026-05-05 19:25 44.10513 15.35097 253 ft 37 kts 135°
2026-05-05 19:25 44.10337 15.35334 255 ft 34 kts 135°
2026-05-05 19:25 44.10174 15.35553 255 ft 32 kts 135°
2026-05-05 19:26 44.10064 15.35698 254 ft 9 kts 142°
2026-05-05 19:26 44.10010 15.35692 254 ft 9 kts 223°
2026-05-05 19:26 44.09967 15.35631 256 ft 8 kts 226°
2026-05-05 19:26 44.09928 15.35575 258 ft 7 kts 225°
2026-05-05 19:27 44.09890 15.35526 260 ft 6 kts 210°
2026-05-05 19:27 44.09844 15.35519 261 ft 7 kts 173°
2026-05-05 19:27 44.09793 15.35525 261 ft 7 kts 192°
2026-05-05 19:27 44.09772 15.35472 263 ft 6 kts 266°
2026-05-05 19:28 44.09770 15.35413 264 ft 5 kts 271°
2026-05-05 19:28 44.09791 15.35372 265 ft 3 kts 320°
2026-05-05 19:28 44.09798 15.35361 265 ft 0 kts 309°